Radiation Dose at Monitoring Post of Fukushima Daini Nuclear Power Station
Date,Time,MP-1(microSv/h),MP-2(microSv/h),MP-3(microSv/h),MP-4(microSv/h),MP-5(microSv/h),MP-6(microSv/h),MP-7(microSv/h),Wind Direction,Wind Velocity(m/s),Rain
2024/05/16,00:00,0.146,0.130,0.209,0.197,0.208,0.118,0.080,south,5.1,Yes
2024/05/16,00:10,0.148,0.130,0.208,0.196,0.207,0.119,0.079,south,5.1,Yes
2024/05/16,00:20,0.148,0.129,0.210,0.197,0.207,0.118,0.080,south,4.5,Yes
2024/05/16,00:30,0.146,0.130,0.207,0.196,0.207,0.119,0.079,south,4.6,Yes
2024/05/16,00:40,0.148,0.130,0.208,0.196,0.206,0.117,0.079,south,4.0,Yes
2024/05/16,00:50,0.147,0.129,0.207,0.195,0.206,0.118,0.080,south,3.9,Yes
2024/05/16,01:00,0.147,0.130,0.207,0.195,0.206,0.118,0.079,south,3.0,Yes
2024/05/16,01:10,0.145,0.128,0.207,0.194,0.206,0.117,0.078,south,3.3,Yes
2024/05/16,01:20,0.146,0.128,0.205,0.192,0.205,0.115,0.077,south,3.8,Yes
2024/05/16,01:30,0.145,0.127,0.204,0.192,0.203,0.115,0.077,south,3.9,Yes
2024/05/16,01:40,0.144,0.127,0.203,0.191,0.203,0.115,0.075,south-southeast,3.1,No
2024/05/16,01:50,0.144,0.126,0.202,0.192,0.202,0.114,0.076,south-southeast,2.2,No
2024/05/16,02:00,0.143,0.125,0.202,0.190,0.203,0.113,0.075,south-southeast,3.0,Yes
2024/05/16,02:10,0.142,0.125,0.203,0.191,0.201,0.113,0.075,south-southeast,4.3,Yes
2024/05/16,02:20,0.142,0.126,0.202,0.190,0.203,0.113,0.075,south-southeast,3.4,Yes
2024/05/16,02:30,0.141,0.125,0.202,0.190,0.200,0.113,0.075,south-southeast,3.0,No
2024/05/16,02:40,0.142,0.124,0.201,0.189,0.203,0.113,0.074,south-southeast,1.3,No
2024/05/16,02:50,0.141,0.124,0.203,0.190,0.201,0.112,0.074,south-southeast,3.5,Yes
2024/05/16,03:00,0.143,0.125,0.203,0.190,0.202,0.113,0.075,south-southeast,3.2,Yes
2024/05/16,03:10,0.142,0.126,0.202,0.191,0.202,0.114,0.075,south-southeast,1.4,Yes
2024/05/16,03:20,0.144,0.125,0.202,0.190,0.204,0.114,0.075,south-southeast,1.2,Yes
2024/05/16,03:30,0.143,0.126,0.202,0.190,0.202,0.113,0.075,south-southeast,3.7,Yes
2024/05/16,03:40,0.144,0.126,0.202,0.191,0.204,0.114,0.075,south-southeast,3.7,Yes
2024/05/16,03:50,0.142,0.125,0.201,0.191,0.201,0.113,0.075,south-southeast,3.4,Yes
2024/05/16,04:00,0.143,0.125,0.202,0.190,0.202,0.114,0.075,south-southeast,3.3,No
2024/05/16,04:10,0.141,0.125,0.200,0.190,0.201,0.111,0.074,south-southeast,2.7,Yes
2024/05/16,04:20,0.143,0.124,0.203,0.188,0.203,0.114,0.074,south,2.5,Yes
2024/05/16,04:30,0.141,0.126,0.199,0.189,0.201,0.112,0.074,south-southwest,2.2,No
2024/05/16,04:40,0.142,0.124,0.202,0.190,0.201,0.112,0.074,south-southwest,1.6,Yes
2024/05/16,04:50,0.141,0.124,0.201,0.190,0.201,0.112,0.073,south-southeast,2.2,Yes
2024/05/16,05:00,0.141,0.124,0.202,0.189,0.201,0.112,0.074,south-southeast,2.6,Yes
2024/05/16,05:10,0.141,0.124,0.200,0.190,0.201,0.112,0.073,south-southeast,3.0,No
2024/05/16,05:20,0.141,0.123,0.202,0.188,0.202,0.111,0.073,south-southeast,2.6,No
2024/05/16,05:30,0.142,0.125,0.199,0.188,0.201,0.112,0.074,south,2.4,Yes
2024/05/16,05:40,0.141,0.125,0.202,0.188,0.201,0.112,0.073,south,2.3,Yes
2024/05/16,05:50,0.141,0.124,0.201,0.188,0.202,0.112,0.074,south-southeast,1.8,Yes
2024/05/16,06:00,0.141,0.124,0.201,0.189,0.201,0.112,0.074,southeast,1.6,Yes
2024/05/16,06:10,0.141,0.124,0.200,0.189,0.203,0.113,0.073,southeast,1.6,Yes
2024/05/16,06:20,0.141,0.125,0.202,0.190,0.200,0.112,0.073,south-southeast,1.1,Yes
2024/05/16,06:30,0.143,0.125,0.200,0.188,0.203,0.112,0.073,east-southeast,0.8,Yes
2024/05/16,06:40,0.141,0.124,0.201,0.189,0.201,0.112,0.074,-,CALM,Yes
2024/05/16,06:50,0.142,0.125,0.200,0.189,0.202,0.113,0.075,-,CALM,Yes
2024/05/16,07:00,0.141,0.124,0.202,0.190,0.201,0.113,0.075,north,0.9,Yes
2024/05/16,07:10,0.143,0.125,0.201,0.189,0.202,0.112,0.075,northwest,1.0,Yes
2024/05/16,07:20,0.142,0.125,0.202,0.191,0.202,0.114,0.075,north-northeast,1.1,Yes
2024/05/16,07:30,0.143,0.126,0.201,0.190,0.202,0.114,0.075,north-northeast,1.2,Yes
2024/05/16,07:40,0.142,0.126,0.201,0.191,0.202,0.114,0.076,north,1.9,Yes
2024/05/16,07:50,0.143,0.126,0.201,0.189,0.202,0.113,0.075,north-northwest,2.9,Yes
2024/05/16,08:00,0.143,0.126,0.203,0.191,0.203,0.114,0.076,north-northwest,2.5,Yes
2024/05/16,08:10,0.143,0.126,0.201,0.189,0.202,0.113,0.075,north-northwest,3.3,Yes
2024/05/16,08:20,0.142,0.126,0.202,0.191,0.201,0.114,0.075,northwest,4.2,Yes
2024/05/16,08:30,0.143,0.126,0.201,0.189,0.203,0.113,0.075,north-northwest,4.5,Yes
2024/05/16,08:40,0.143,0.127,0.201,0.191,0.203,0.115,0.076,north-northwest,4.9,Yes
2024/05/16,08:50,0.143,0.127,0.202,0.190,0.202,0.113,0.076,north-northwest,5.5,Yes
2024/05/16,09:00,0.143,0.128,0.201,0.191,0.201,0.115,0.077,northwest,5.6,Yes
2024/05/16,09:10,0.144,0.126,0.202,0.190,0.200,0.114,0.077,north-northwest,5.9,Yes
2024/05/16,09:20,0.144,0.127,0.201,0.191,0.202,0.115,0.076,northwest,5.5,Yes
2024/05/16,09:30,0.144,0.127,0.202,0.189,0.202,0.114,0.076,northwest,5.6,Yes
2024/05/16,09:40,0.144,0.127,0.200,0.190,-,0.113,0.077,north-northwest,6.5,Yes
2024/05/16,09:50,0.144,0.126,0.201,0.189,-,0.113,0.076,north-northwest,6.2,Yes
2024/05/16,10:00,0.143,0.126,0.200,0.190,-,0.114,0.075,north-northwest,7.0,Yes
2024/05/16,10:10,0.144,0.125,0.201,0.188,-,0.113,0.076,north-northwest,7.0,Yes
2024/05/16,10:20,0.142,0.126,0.198,0.189,-,0.114,0.076,north-northwest,6.8,Yes
2024/05/16,10:30,0.143,0.125,0.200,0.189,-,0.114,0.075,north-northwest,6.4,Yes
2024/05/16,10:40,0.143,0.125,0.199,0.188,-,0.114,0.075,north-northwest,6.1,Yes
2024/05/16,10:50,0.142,0.124,0.200,0.186,-,0.113,0.074,north-northwest,6.1,Yes
2024/05/16,11:00,0.141,0.125,0.199,0.188,-,0.112,0.074,north-northwest,5.2,Yes
2024/05/16,11:10,0.142,0.124,0.199,0.186,-,0.112,0.075,north-northwest,5.1,Yes
2024/05/16,11:20,0.141,0.125,0.199,0.188,-,0.112,0.074,northwest,5.9,Yes
2024/05/16,11:30,0.141,0.124,0.199,0.188,-,0.112,0.074,north-northwest,5.7,Yes
2024/05/16,11:40,0.143,0.125,0.200,0.188,-,0.112,0.074,north-northwest,4.6,Yes
2024/05/16,11:50,0.141,0.124,0.198,0.189,-,0.112,0.075,north-northwest,7.5,No
2024/05/16,12:00,0.143,0.124,0.199,0.186,-,0.112,0.075,north-northwest,6.9,No
2024/05/16,12:10,0.140,0.124,0.200,0.188,-,0.112,0.074,north-northwest,6.2,No
2024/05/16,12:20,0.141,0.124,0.197,0.186,-,0.111,0.074,north-northwest,5.8,No
2024/05/16,12:30,0.141,0.124,0.200,0.186,-,0.111,0.073,north-northwest,5.0,No
2024/05/16,12:40,0.140,0.122,0.197,0.187,-,0.111,0.073,north-northwest,4.9,No
2024/05/16,12:50,0.141,0.123,0.197,0.186,-,0.111,0.073,north,5.2,No
2024/05/16,13:00,0.141,0.122,0.199,0.185,-,0.110,0.072,north,4.8,No
2024/05/16,13:10,0.139,0.122,0.198,0.188,-,0.111,0.072,north,3.8,No
2024/05/16,13:20,0.140,0.123,0.196,0.186,-,0.110,0.073,north,3.9,No
2024/05/16,13:30,0.140,0.123,0.198,0.184,-,0.110,0.073,north,3.8,No
2024/05/16,13:40,0.141,0.122,0.198,0.187,-,0.111,0.073,north,3.6,No
2024/05/16,13:50,0.140,0.123,0.196,0.187,-,0.110,0.072,north,3.3,No
2024/05/16,14:00,0.139,0.122,0.198,0.185,-,0.110,0.073,north-northeast,2.6,No
2024/05/16,14:10,0.140,0.123,0.199,0.185,-,0.111,0.072,north,2.5,No
2024/05/16,14:20,0.139,0.123,0.199,0.188,-,0.111,0.072,north-northeast,2.5,No
2024/05/16,14:30,0.138,0.122,0.196,0.187,-,0.110,0.073,north-northeast,2.4,No
2024/05/16,14:40,0.141,0.123,0.200,0.185,-,0.110,0.073,north-northeast,1.4,No
2024/05/16,14:50,0.139,0.124,0.197,0.188,-,0.111,0.073,northeast,1.9,No
2024/05/16,15:00,0.141,0.123,0.198,0.188,-,0.110,0.073,east-northeast,1.7,No
2024/05/16,15:10,0.141,0.124,0.199,0.187,-,0.110,0.073,east-northeast,0.7,No
2024/05/16,15:20,0.139,0.123,0.199,0.189,-,0.112,0.073,southeast,1.8,No
2024/05/16,15:30,0.142,0.124,0.200,0.186,-,0.111,0.073,southeast,1.2,Yes
2024/05/16,15:40,0.140,0.123,0.198,0.188,-,0.112,0.073,south-southeast,2.5,Yes
2024/05/16,15:50,0.142,0.124,0.200,0.189,-,0.111,0.073,south-southeast,3.6,Yes
2024/05/16,16:00,0.141,0.122,0.200,0.188,-,0.112,0.074,south-southeast,3.8,Yes
2024/05/16,16:10,0.141,0.126,0.199,0.189,0.200,0.111,0.073,south-southeast,3.7,Yes
2024/05/16,16:20,0.141,0.124,0.200,0.188,0.200,0.112,0.074,south,4.8,Yes
2024/05/16,16:30,0.140,0.123,0.199,0.189,0.201,0.112,0.074,south,5.5,Yes
2024/05/16,16:40,0.142,0.123,0.200,0.188,0.201,0.112,0.073,south,6.1,No
2024/05/16,16:50,0.141,0.124,0.198,0.189,0.199,0.111,0.074,south,7.3,No
2024/05/16,17:00,0.140,0.123,0.201,0.187,0.201,0.111,0.073,south-southeast,8.3,No
2024/05/16,17:10,0.142,0.124,0.198,0.188,0.199,0.112,0.072,south-southeast,8.1,No
2024/05/16,17:20,0.141,0.124,0.199,0.187,0.200,0.111,0.073,south-southeast,7.2,No
2024/05/16,17:30,0.142,0.123,0.199,0.187,0.200,0.111,0.073,south,5.8,No
2024/05/16,17:40,0.141,0.124,0.198,0.188,0.201,0.111,0.073,south,5.2,No
2024/05/16,17:50,0.140,0.123,0.199,0.187,0.200,0.111,0.073,south-southwest,4.4,No
2024/05/16,18:00,0.141,0.124,0.198,0.188,0.199,0.111,0.072,south-southwest,3.1,No
2024/05/16,18:10,0.141,0.123,0.200,0.187,0.202,0.111,0.073,south,1.7,No
2024/05/16,18:20,0.141,0.124,0.200,0.189,0.199,0.111,0.073,south,3.1,No
2024/05/16,18:30,0.140,0.123,0.200,0.186,0.203,0.111,0.073,south,3.9,No
2024/05/16,18:40,0.141,0.123,0.199,0.189,0.199,0.111,0.073,south,5.5,No
2024/05/16,18:50,0.141,0.124,0.199,0.188,0.201,0.111,0.073,south,5.8,No
2024/05/16,19:00,0.140,0.123,0.199,0.188,0.201,0.111,0.073,south,6.3,No
2024/05/16,19:10,0.141,0.124,0.200,0.188,0.200,0.111,0.073,south,5.0,No
2024/05/16,19:20,0.140,0.123,0.199,0.188,0.201,0.110,0.073,south,5.8,No
2024/05/16,19:30,0.140,0.124,0.200,0.188,0.199,0.112,0.073,south,5.7,No
2024/05/16,19:40,0.140,0.123,0.198,0.187,0.201,0.111,0.073,south,6.1,No
2024/05/16,19:50,0.140,0.124,0.200,0.188,0.200,0.111,0.073,south,5.2,No
2024/05/16,20:00,0.140,0.123,0.199,0.187,0.201,0.110,0.073,south-southwest,5.5,No
2024/05/16,20:10,0.140,0.124,0.199,0.189,0.199,0.111,0.073,south,7.0,No
2024/05/16,20:20,0.140,0.123,0.199,0.187,0.201,0.110,0.073,south,6.2,No
2024/05/16,20:30,0.141,0.124,0.200,0.188,0.199,0.111,0.073,south,6.3,No
2024/05/16,20:40,0.141,0.124,0.200,0.188,0.200,0.111,0.074,south-southwest,5.6,No
2024/05/16,20:50,0.141,0.124,0.201,0.189,0.200,0.111,0.072,south,5.9,No
2024/05/16,21:00,0.141,0.124,0.200,0.187,0.200,0.111,0.073,south,6.1,No
2024/05/16,21:10,0.141,0.124,0.200,0.189,0.200,0.111,0.073,south-southwest,6.0,No
2024/05/16,21:20,0.141,0.124,0.199,0.188,0.201,0.111,0.073,south,4.3,No
2024/05/16,21:30,0.141,0.123,0.200,0.189,0.201,0.111,0.073,south,5.4,No
2024/05/16,21:40,0.141,0.124,0.199,0.187,0.202,0.110,0.074,south,5.2,No
2024/05/16,21:50,0.141,0.124,0.200,0.188,0.200,0.111,0.072,south,5.5,No
2024/05/16,22:00,0.140,0.124,0.200,0.187,0.201,0.112,0.074,south-southwest,5.9,No
2024/05/16,22:10,0.141,0.124,0.199,0.189,0.201,0.111,0.073,south,4.2,No
2024/05/16,22:20,0.141,0.124,0.201,0.187,0.201,0.111,0.073,south-southwest,3.7,No
2024/05/16,22:30,0.141,0.124,0.198,0.188,0.200,0.111,0.073,south-southwest,4.5,No
2024/05/16,22:40,0.141,0.124,0.200,0.188,0.201,0.111,0.073,southwest,3.5,No
2024/05/16,22:50,0.142,0.124,0.200,0.189,0.201,0.111,0.073,north-northwest,4.2,No
2024/05/16,23:00,0.141,0.123,0.201,0.189,0.201,0.113,0.073,west-northwest,5.1,No
2024/05/16,23:10,0.141,0.124,0.199,0.188,0.200,0.111,0.073,west,6.6,No
2024/05/16,23:20,0.140,0.123,0.198,0.189,0.201,0.112,0.074,west-northwest,6.4,No
2024/05/16,23:30,0.142,0.123,0.201,0.188,0.200,0.111,0.073,west-northwest,4.4,No
2024/05/16,23:40,0.140,0.123,0.199,0.189,0.202,0.112,0.073,northwest,3.9,No
2024/05/16,23:50,0.142,0.124,0.201,0.188,0.201,0.111,0.073,west-northwest,5.4,No
